This is the latest recevied weather packets stored in our database for station/object LA9TLA-1. If no packets are shown the sender has not sent any weather packets the latest 10 day(s).
| Time | Temp. | Humidity | Pressure | Rain* | Wind** | Luminosity | Snow |
|---|---|---|---|---|---|---|---|
| 1788465901 | 15° C | 99% | 992.5 hPa | 0 mm | - | - | - |
| 1788449703 | 13.33° C | 99% | 993.1 hPa | 0 mm | - | - | - |
| 1788447901 | 13.33° C | 99% | 993.5 hPa | 0.25 mm | - | - | - |
| 1788442501 | 12.22° C | 99% | 994.2 hPa | 0 mm | - | - | - |
| 1788440701 | 11.67° C | 99% | 994.6 hPa | 0 mm | - | - | - |
| 1788438902 | 11.67° C | 99% | 994.9 hPa | 0.25 mm | - | - | - |
| 1788429900 | 11.11° C | 99% | 996.4 hPa | 1.27 mm | - | - | - |
| 1788428102 | 11.11° C | 99% | 996.6 hPa | 0.76 mm | - | - | - |
| 1788426301 | 11.67° C | 99% | 996.8 hPa | 0.25 mm | - | - | - |
| 1788424501 | 12.22° C | 53% | 997 hPa | 0 mm | - | - | - |
| 1788422701 | 12.78° C | 32% | 997.3 hPa | 0 mm | - | - | - |
| 1788420902 | 12.22° C | 26% | 997.6 hPa | 0 mm | - | - | - |
| 1788419103 | 12.22° C | 26% | 997.8 hPa | 0 mm | - | - | - |
| 1788417302 | 11.67° C | 36% | 998.2 hPa | 0 mm | - | - | - |
| 1788415501 | 11.11° C | 36% | 998.5 hPa | 0 mm | - | - | - |
| 1788413702 | 11.11° C | 41% | 999.1 hPa | 0 mm | - | - | - |
| 1788411903 | 10.56° C | 59% | 999.3 hPa | 0 mm | - | - | - |
| 1788410101 | 10.56° C | 88% | 999.5 hPa | 0 mm | - | - | - |
| 1788408302 | 10° C | 88% | 1000.1 hPa | 0 mm | - | - | - |
| 1788406502 | 10° C | 99% | 1000.2 hPa | 0 mm | - | - | - |
| 1788404702 | 9.44° C | 62% | 1000.5 hPa | 0 mm | - | - | - |
| 1788402902 | 10° C | 43% | 1000.8 hPa | 0 mm | - | - | - |
| 1788401104 | 10° C | 29% | 1001.2 hPa | 0 mm | - | - | - |
| 1788379503 | 12.22° C | 10% | 1003.1 hPa | 0 mm | - | - | - |
| 1788377700 | 12.22° C | 10% | 1003.1 hPa | 0 mm | - | - | - |
* Rain latest hour (hover to see other rain measurements)
** Current wind speed in m/s (hover to see current wind gust speed)